{"data":{"norad_id":54646,"intl_designator":"2022-166E","name":"ONEWEB-0542","alt_names":[],"object_type":"PAYLOAD","status":"ACTIVE","operator":null,"country":"UK","launch_date":"2022-12-08","launch_site_code":"AFETR","launch_vehicle":null,"mission":null,"orbit_class":"UNKNOWN","rcs_meters":null,"size_class":null,"mass_kg":null,"dimensions":null,"purposes":["comms"],"wikipedia_slug":null,"has_3d_model":false,"image_url":null,"decayed_at":null,"tle_current":{"epoch":"2026-09-20T03:34:08.270112Z","epoch_age_seconds":52360,"freshness":"FRESH","line1":"1 54646U 22166E   26263.14870683 -.00000704  00000+0 -17371-2 0  9991","line2":"2 54646  87.9287 225.0745 0002414  82.3511 277.7897 13.21829566184085","mean_motion":13.21829566,"eccentricity":0.0002414,"inclination_deg":87.9287,"raan_deg":225.0745,"arg_perigee_deg":82.3511,"mean_anomaly_deg":277.7897,"bstar":-0.0017371,"rev_number":18408,"period_min":108.93991457292,"perigee_km":1175.9157903078,"apogee_km":1179.5637676167,"semimajor_km":7555.8767789623,"source":"CELESTRAK","updated_at":"2026-09-20T09:00:44.723739Z"}}}